Location: Bednik
(45.3500°N, 16.3833°E)
Time: 04:38:52
(UTC+00:00)

Meteor 1-20 Rocket - Pass Details

Date: 08 August 2020
Orbit: 819 x 892 km, 81.2° (Epoch: 19 September)

Event Time Altitude Azimuth Distance (km) Brightness Sun altitude
Exits shadow 20:23:16 24° 182° (S) 1,751 5.4 -19.3°
Maximum altitude 20:26:56 80° 98° (E) 907 4.2 -19.7°
Drops below altitude 10° 20:32:48 10° 13° (NNE) 2,572 7.2 -20.3°
Sets 20:35:16 0° 12° (NNE) 3,516 8.0 -20.6°
